{"data":{"norad_id":67915,"intl_designator":"2026-036M","name":"STARLINK-36723","alt_names":[],"object_type":"PAYLOAD","status":"ACTIVE","operator":null,"country":"US","launch_date":"2026-02-22","launch_site_code":"AFETR","launch_vehicle":null,"mission":null,"orbit_class":"UNKNOWN","rcs_meters":null,"size_class":null,"mass_kg":null,"dimensions":null,"purposes":["comms"],"wikipedia_slug":null,"has_3d_model":false,"image_url":null,"decayed_at":null,"tle_current":{"epoch":"2026-05-25T03:03:17.672832Z","epoch_age_seconds":67545,"freshness":"FRESH","line1":"1 67915U 26036M   26145.12728788  .00013272  00000+0  49072-3 0  9995","line2":"2 67915  42.9982 173.4513 0000573 290.6311  69.4479 15.27594858 15419","mean_motion":15.27594858,"eccentricity":5.73e-5,"inclination_deg":42.9982,"raan_deg":173.4513,"arg_perigee_deg":290.6311,"mean_anomaly_deg":69.4479,"bstar":0.00049072,"rev_number":1541,"period_min":94.265831837462,"perigee_km":482.61146278909,"apogee_km":483.39774961716,"semimajor_km":6861.1416062031,"source":"CELESTRAK","updated_at":"2026-05-25T13:38:21.739909Z"}}}